Torna al catalogo

FENGYUN 1C DEB

AttivoSSO
NORAD 33612·DEBRIS·🇨🇳 China

Lanciato May 10, 1999 da Taiyuan Satellite Launch Center

Loading…

Prossimi Passaggi (prossime 24 ore)

TLE

ObsoletoSource: Space-Track

Epoca: Aug 31, 2026, 02:42 UTC

1 33612U 99025DCV 26243.11293907  .00001660  00000-0  99494-3 0  9990
2 33612  98.6111 203.9568 0111407  91.6923 269.7009 14.05219232603438

Traccia FENGYUN 1C DEB in tempo reale con AllMySat

Download on the App Store